Location: Wanzleben
(52.0609°N, 11.4408°E)
Time: 01:30:14
(UTC+00:00)

Envisat - Pass Details

Date: 27 November 2020
Orbit: 764 x 766 km, 98.1° (Epoch: 20 January)

Event Time Altitude Azimuth Distance (km) Brightness Sun altitude
Rises 06:04:13 0° 10° (N) 3,249 6.1 -7.6°
Reaches altitude 10° 06:06:36 10° 5° (N) 2,318 5.3 -7.2°
Maximum altitude 06:11:27 46° 293° (WNW) 1,024 3.3 -6.6°
Drops below altitude 10° 06:16:17 10° 221° (SW) 2,301 5.3 -5.9°
Sets 06:18:39 0° 216° (SW) 3,223 6.1 -5.6°
